Theta_e
327 326 326 325 325 324 325 328 324 327 327 328 329 324 322 321 320 320 321 321 321 320 316 312 311 311 311 311 311 311 311 312 313 314 316 314 317 317 318 318 317 318 317
326 327 327 326 327 327 327 327 327 327 326 325 322 321 320 320 320 318 316 313 312 311 311 311 310 310 311 311 310 310 310 310 310 314 314 315 314 315 316 316 316 316 314
325 326 326 326 326 326 327 327 326 325 324 323 321 320 320 320 316 313 312 312 311 311 310 311 311 311 310 310 310 309 309 309 310 310 311 313 314 314 315 316 315 315 313
324 324 323 322 324 325 327 326 325 325 324 321 321 320 321 314 313 313 312 311 311 311 311 311 310 310 310 309 309 309 308 308 308 309 311 312 312 312 313 313 313 313 312
323 323 323 322 323 324 326 326 324 323 322 321 321 320 314 313 313 312 311 310 310 310 310 310 310 310 309 309 308 307 306 306 306 306 308 309 310 311 312 312 311 309 308
323 323 322 323 324 325 324 323 322 322 321 320 318 314 313 313 312 310 310 310 310 309 309 310 310 309 308 307 306 306 304 304 303 304 304 305 307 308 309 309 309 308 307
321 322 323 323 323 323 323 322 321 320 318 315 312 312 312 310 309 309 309 310 309 309 309 309 308 307 306 305 305 304 303 303 302 301 302 303 304 305 305 306 306 307 306
315 316 316 317 317 316 316 316 315 313 312 312 311 310 309 309 309 309 309 309 308 308 308 308 306 306 305 305 304 303 303 301 301 300 301 301 302 303 303 304 304 303 303
314 313 313 313 313 313 312 312 311 311 311 310 309 309 309 310 309 309 307 307 307 307 307 306 305 304 304 304 304 302 301 301 300 300 300 300 300 301 302 302 302 302 302
312 313 313 312 311 311 311 311 311 309 308 308 308 309 309 309 308 307 306 306 306 306 305 304 303 302 301 301 299 299 299 299 300 300 300 300 300 301 301 301 301 301 301
310 310 310 310 310 309 309 308 308 307 307 307 307 308 308 307 307 306 306 305 305 304 303 302 300 299 299 298 298 299 298 299 299 298 298 298 297 298 299 299 299 299 299
309 309 309 309 309 308 308 307 307 307 307 308 308 308 308 307 306 306 306 305 305 304 303 302 301 300 299 298 297 297 298 298 297 295 295 295 294 292 290 292 296 298 298
308 307 307 307 307 307 307 307 307 307 307 307 307 307 307 306 305 304 304 304 303 303 303 302 301 301 300 298 296 295 295 294 292 290 289 289 288 289 289 288 288 290 292
307 307 306 306 306 305 305 305 305 305 306 306 306 306 305 305 304 305 305 304 303 302 302 301 301 299 297 296 295 292 290 290 289 288 288 287 287 287 287 287 287 287 287
307 308 307 307 306 305 305 304 304 304 304 305 305 305 304 304 304 305 304 303 303 302 301 301 300 298 296 295 295 292 289 288 288 287 287 287 287 287 286 287 286 286 286
304 305 305 305 305 305 304 304 304 305 304 304 304 304 304 305 304 304 303 303 303 301 301 299 297 296 295 294 294 293 289 288 287 286 286 286 286 286 286 286 286 286 286
300 300 301 301 302 302 303 304 303 303 302 303 303 302 302 303 303 302 302 302 302 300 299 298 296 295 295 294 293 293 289 290 288 287 286 286 286 286 285 286 286 286 286
298 298 298 299 299 299 300 300 300 300 300 301 301 301 301 301 301 301 301 300 300 300 298 297 296 295 294 294 293 293 290 289 289 287 287 286 286 286 286 285 286 286 286
296 296 297 297 297 297 298 297 297 297 297 297 297 298 299 299 299 300 300 300 300 300 299 298 296 295 294 294 293 293 292 290 289 288 287 287 286 286 285 286 286 286 285
293 293 294 295 295 295 296 296 296 296 296 296 297 297 297 298 298 299 299 298 298 298 298 297 296 295 295 294 293 293 292 293 291 290 288 287 287 287 286 286 285 285 286
290 288 287 287 287 288 290 293 294 294 294 295 296 296 296 296 296 297 296 296 297 297 297 297 297 296 295 295 294 293 293 293 293 293 290 288 288 288 287 286 286 286 285
286 287 287 286 286 286 286 286 287 290 293 293 294 294 294 294 294 295 295 295 295 295 295 294 294 294 294 294 294 294 294 293 293 293 292 291 291 291 291 290 288 287 286
289 288 287 287 286 286 286 286 286 286 286 287 289 291 291 291 292 292 292 292 292 292 292 292 292 292 292 292 292 292 292 293 292 292 292 291 292 292 292 292 292 290 288
286 288 288 287 287 287 287 286 286 285 285 285 285 285 285 286 287 287 288 288 288 289 289 289 289 289 288 289 289 289 290 290 290 290 290 290 291 291 291 291 292 293 293
288 288 287 286 286 286 286 286 285 285 285 285 285 285 285 285 285 285 285 285 285 285 285 285 285 285 286 285 286 287 287 288 289 288 288 288 289 289 289 289 290 290 290
288 289 288 288 286 286 287 286 285 285 285 284 284 285 284 284 284 284 285 285 285 285 285 285 285 285 285 285 285 285 285 286 286 286 286 286 287 287 287 288 288 288 288
Wind_Speed
27 24 24 25 27 30 34 28 27 25 27 29 28 23 21 20 17 16 15 15 14 13 13 12 12 12 13 12 12 13 15 16 19 21 23 20 18 18 18 18 20 18 19
25 24 24 23 23 25 25 28 28 27 27 27 24 21 20 19 18 16 14 13 12 12 11 10 9 9 10 12 12 14 15 16 19 20 21 20 19 20 21 21 19 21 22
23 23 22 22 24 25 27 29 30 27 25 26 21 20 20 18 17 15 12 12 11 10 9 9 10 11 12 13 14 16 17 16 17 19 19 20 18 20 18 22 24 22 23
21 24 24 22 22 24 27 28 26 24 25 24 20 20 20 18 15 13 13 12 12 12 11 11 11 13 14 16 17 18 19 18 17 19 20 20 21 20 21 23 23 24 22
20 21 22 22 22 23 25 25 24 24 24 20 18 20 19 17 14 13 13 12 11 11 11 12 12 15 17 18 19 18 19 19 19 21 21 19 19 19 20 19 22 21 20
15 19 20 21 22 22 23 23 22 22 20 19 20 19 18 16 15 13 11 10 11 11 11 12 15 17 18 19 18 17 19 19 21 23 21 21 18 17 16 15 16 19 21
16 16 17 19 20 19 19 19 19 20 20 21 20 18 16 15 13 12 11 11 10 10 12 14 17 18 18 18 17 19 19 18 17 20 21 19 20 19 19 19 18 19 20
13 14 15 16 18 20 21 21 21 21 21 20 18 18 17 15 12 10 8 8 8 11 14 14 16 16 18 17 17 17 17 15 13 16 19 20 22 21 20 19 17 16 18
9 12 14 15 16 17 18 18 19 20 19 18 18 16 15 13 10 7 5 7 10 13 14 15 15 16 17 17 16 14 13 14 13 13 13 13 14 14 15 16 17 18 19
9 11 13 14 16 17 18 19 20 19 19 18 17 16 14 12 9 6 5 9 11 12 13 13 15 15 14 12 13 12 12 13 12 11 11 12 12 13 13 14 16 16 17
7 9 11 12 13 13 14 14 15 17 17 17 16 15 14 12 10 7 5 7 10 11 11 11 13 14 13 14 14 13 13 12 12 11 10 11 11 11 11 13 14 15 16
5 6 8 10 12 13 14 16 16 17 17 16 15 15 14 13 13 12 9 7 8 11 12 12 9 13 15 14 15 14 13 13 12 11 10 12 12 12 11 11 13 14 16
6 8 10 12 13 14 15 15 16 18 18 18 17 16 17 16 14 14 13 14 11 9 11 13 15 14 15 15 13 12 12 12 12 11 11 12 13 13 12 12 13 14 16
5 5 7 9 12 13 15 17 17 18 18 18 17 16 16 15 14 12 11 11 10 9 11 13 14 15 16 15 13 12 12 13 13 12 13 14 14 13 13 13 13 13 15
5 6 9 9 10 12 14 15 16 16 16 17 16 17 17 15 13 12 10 11 12 12 14 15 14 15 17 16 15 13 14 14 13 13 14 14 14 13 13 13 14 13 14
6 7 9 10 11 13 15 15 13 15 17 17 17 16 15 16 16 14 13 13 15 16 14 14 13 15 16 15 15 14 15 14 13 14 15 15 14 13 13 13 14 14 14
11 11 11 11 11 12 13 13 13 15 17 17 17 17 18 18 17 16 15 14 16 16 15 15 14 14 14 14 15 16 16 14 14 15 15 14 14 14 14 14 15 16 16
13 14 14 14 14 14 14 14 15 15 16 17 18 19 20 18 17 16 17 17 18 20 17 16 15 14 13 15 17 17 16 16 15 16 15 14 14 15 15 15 16 16 16
12 16 16 15 14 14 14 14 15 15 16 18 19 20 19 19 18 18 20 22 20 19 19 18 16 15 15 15 15 15 18 18 17 16 15 14 14 15 15 15 16 17 17
11 13 15 15 14 14 14 14 15 15 15 15 17 19 19 20 21 22 23 22 20 18 18 18 17 18 18 17 18 18 19 20 21 20 18 17 16 16 17 16 17 18 20
11 11 11 12 12 12 14 14 14 15 14 14 15 16 17 18 17 18 18 17 18 18 19 19 19 18 17 18 17 19 19 19 21 22 21 19 18 19 18 18 19 20 20
6 7 9 11 11 11 12 12 13 14 13 13 12 12 12 13 14 15 15 16 17 18 18 19 19 19 19 19 19 19 18 17 17 19 22 22 21 21 21 22 21 21 21
11 11 11 12 12 12 12 12 12 12 12 13 15 14 12 12 13 14 15 16 16 16 17 17 18 19 19 19 18 19 19 19 17 17 18 21 23 24 23 22 23 24 24
10 8 8 9 10 10 11 11 12 12 12 13 13 14 15 16 18 19 20 20 20 21 21 22 21 21 20 19 19 18 18 18 18 18 18 19 20 21 23 25 25 26 25
8 8 8 9 11 13 14 13 12 12 13 13 13 12 13 14 14 15 15 16 17 18 19 19 20 22 23 23 21 21 21 20 19 18 18 19 20 21 22 23 24 26 27
9 11 13 14 15 16 15 17 16 14 14 13 14 13 13 13 13 13 14 14 14 14 14 15 16 17 19 20 20 20 21 23 23 22 21 21 22 22 22 24 24 25 26
Wind_Direction
171 166 165 164 174 171 180 186 189 199 210 202 193 181 188 191 197 209 215 219 222 229 233 238 250 259 264 271 273 274 275 273 270 271 278 278 279 279 277 276 273 265 261
173 177 177 174 182 192 189 193 195 186 179 178 181 185 191 198 203 205 206 210 217 225 234 245 261 270 275 278 282 280 279 280 281 275 278 277 275 274 269 264 262 263 256
165 165 166 170 179 181 181 177 173 179 182 183 188 193 197 202 202 203 210 221 229 235 243 252 266 273 279 286 281 284 281 281 269 275 277 280 277 277 269 261 259 255 254
167 166 167 170 177 180 180 181 181 184 187 189 196 199 200 201 201 209 224 232 233 236 245 253 262 272 278 279 284 286 288 282 281 275 272 270 271 272 263 262 259 254 249
178 173 171 173 179 185 186 186 183 186 190 197 201 198 197 201 211 219 224 225 236 244 251 261 272 276 278 281 281 284 286 289 289 283 270 266 268 269 268 270 253 248 249
180 180 176 176 178 181 181 184 188 193 200 203 199 200 203 209 213 215 219 232 243 254 266 277 282 284 285 284 283 285 286 298 298 277 266 265 267 265 263 265 261 253 249
170 173 174 177 178 182 188 193 196 200 201 198 199 203 208 208 206 211 220 234 248 266 280 285 285 284 279 276 280 284 288 303 308 275 268 264 264 263 263 261 259 259 261
173 179 186 185 186 188 189 193 194 195 197 200 202 201 201 202 204 215 229 255 277 284 283 290 286 284 279 278 280 277 279 282 293 284 278 267 267 265 265 263 258 254 255
178 180 185 189 196 198 196 195 199 202 202 202 200 200 202 204 205 215 242 280 296 299 304 295 287 286 287 289 285 287 274 277 281 280 279 275 270 267 261 257 252 249 249
211 209 209 204 201 204 204 205 205 203 201 197 197 198 202 203 202 208 269 304 322 324 319 308 301 295 294 289 286 288 272 272 280 280 278 278 272 263 257 251 247 246 247
207 205 207 208 208 209 208 203 201 200 198 198 200 202 205 205 209 223 276 317 329 324 312 316 318 318 309 291 276 269 272 275 280 279 279 278 272 267 259 251 246 242 237
198 202 208 205 205 208 208 208 208 210 211 210 212 218 221 225 231 233 237 236 264 267 281 292 297 310 310 295 276 275 276 277 281 280 274 270 266 263 260 255 250 244 237
197 195 206 211 213 216 218 217 220 221 221 221 223 225 229 232 244 252 257 260 256 269 297 306 287 292 293 290 278 276 280 279 275 278 276 270 267 265 261 256 251 247 243
242 232 228 227 224 222 219 220 224 227 229 231 233 236 239 244 245 248 256 266 257 273 294 295 298 289 286 284 275 275 274 274 276 279 275 270 269 266 260 254 251 247 244
282 280 269 258 257 250 241 235 235 237 239 240 241 240 244 251 256 249 250 262 265 273 285 288 287 283 280 277 274 269 271 270 274 276 272 270 268 267 262 253 246 240 239
293 275 269 262 250 251 261 262 257 256 254 247 243 246 254 259 260 254 258 270 275 278 290 292 289 276 274 276 272 267 264 267 270 272 269 267 267 265 260 252 247 243 240
307 296 288 282 272 263 260 263 269 264 259 260 257 254 251 251 254 253 258 273 277 271 266 281 289 279 271 274 271 263 262 262 265 269 270 267 262 260 259 255 248 243 241
312 302 292 283 278 274 269 265 261 260 261 261 260 258 253 253 255 258 261 260 263 267 271 277 279 285 282 274 268 264 258 257 261 268 268 267 263 259 256 256 253 249 246
291 298 296 291 284 277 272 266 264 263 266 269 264 262 262 254 253 258 260 258 258 264 271 274 272 272 274 275 279 266 257 255 256 261 265 266 265 263 262 259 257 252 247
284 284 288 290 289 285 280 276 273 270 271 272 268 260 258 258 253 256 257 253 250 254 262 265 267 262 264 269 269 269 264 256 253 256 262 264 265 266 265 263 261 260 254
294 299 296 296 296 293 287 281 276 272 273 273 271 266 263 259 254 251 249 249 252 255 258 259 260 260 259 265 270 270 268 265 257 253 256 259 260 263 265 263 259 256 256
301 302 303 300 297 294 291 288 283 274 268 271 270 266 259 256 254 251 251 252 254 255 256 257 259 262 264 263 260 263 269 270 268 261 255 256 260 263 263 263 262 261 259
287 288 287 287 290 291 290 290 287 283 278 271 265 264 263 258 256 257 258 259 260 260 260 264 268 270 271 269 264 262 263 266 267 264 262 259 257 259 261 264 264 262 261
278 289 309 315 311 305 300 296 292 289 285 279 275 271 267 264 260 258 258 258 260 261 262 262 261 262 266 263 264 262 261 263 265 264 263 262 263 262 260 257 257 260 262
276 289 299 304 309 311 306 299 294 290 287 285 282 279 277 271 268 267 267 268 267 267 266 267 266 264 264 265 264 260 260 263 264 267 266 265 264 265 265 265 263 262 260
277 285 290 295 296 294 294 296 291 286 285 284 282 280 278 277 274 273 273 273 273 274 276 275 273 271 270 269 270 271 265 261 261 261 264 267 268 267 266 267 267 267 267